When you browse on this site, cookies collect data to enhance your experience and personalize the content and advertising you see.
Visit our Privacy Policy to learn more. By continuing to use the site, you agree to this use of cookies and data.
  • In Österreich
  • Länderverzeichnis
  • Für 7 Tage
  • Wassertemperatur
  • Wetterkarte
  • News
  • Widgets
  • user-avatar
    Anmelden

    Stündliche Wetter Lyubachin

    Heute, 17 September, Dienstag

    Zeit Temperatur Niederschläge Wind Luftdruck Luftfeuchtigkeit
    00:00 +10°C° 0 mm 4 m/S 745 mmHg 77%
    01:00 +8°C° 0 mm 4 m/S 745 mmHg 79%
    02:00 +8°C° 0 mm 4 m/S 744 mmHg 83%
    03:00 +7°C° 0 mm 4 m/S 744 mmHg 82%
    04:00 +7°C° 0 mm 4 m/S 744 mmHg 81%
    05:00 +7°C° 0 mm 4 m/S 744 mmHg 81%
    06:00 +7°C° 0 mm 5 m/S 744 mmHg 79%
    07:00 +8°C° 0 mm 5 m/S 744 mmHg 77%
    08:00 +9°C° 0 mm 6 m/S 744 mmHg 76%
    09:00 +10°C° 0 mm 6 m/S 744 mmHg 69%
    10:00 +13°C° 0 mm 6 m/S 744 mmHg 63%
    11:00 +14°C° 0 mm 6 m/S 744 mmHg 57%
    12:00 +14°C° 0 mm 6 m/S 744 mmHg 55%
    13:00 +15°C° 0 mm 6 m/S 743 mmHg 53%
    14:00 +15°C° 0 mm 6 m/S 743 mmHg 52%
    15:00 +15°C° 0.2 mm 5 m/S 742 mmHg 57%
    16:00 +14°C° 0.2 mm 4 m/S 742 mmHg 62%
    17:00 +13°C° 0.2 mm 4 m/S 741 mmHg 67%
    18:00 +12°C° 0.3 mm 4 m/S 741 mmHg 69%
    19:00 +11°C° 0.3 mm 4 m/S 741 mmHg 72%
    20:00 +10°C° 0.3 mm 4 m/S 741 mmHg 74%
    21:00 +10°C° 0.1 mm 4 m/S 740 mmHg 77%
    22:00 +10°C° 0.1 mm 4 m/S 740 mmHg 79%
    23:00 +8°C° 0.1 mm 4 m/S 739 mmHg 82%

    Morgen, 18 September, Mittwoch

    Zeit Temperatur Niederschläge Wind Luftdruck Luftfeuchtigkeit
    00:00 +8°C° 0.9 mm 4 m/S 739 mmHg 85%
    01:00 +7°C° 0.9 mm 4 m/S 739 mmHg 88%
    02:00 +7°C° 0.9 mm 5 m/S 738 mmHg 91%
    03:00 +6°C° 1 mm 5 m/S 738 mmHg 90%
    04:00 +6°C° 1 mm 5 m/S 738 mmHg 89%
    05:00 +6°C° 1 mm 5 m/S 738 mmHg 89%
    06:00 +6°C° 0.1 mm 5 m/S 738 mmHg 88%
    07:00 +5°C° 0.1 mm 6 m/S 739 mmHg 88%
    08:00 +4°C° 0.1 mm 7 m/S 739 mmHg 87%
    09:00 +5°C° 0.2 mm 7 m/S 740 mmHg 85%
    10:00 +7°C° 0.2 mm 6 m/S 740 mmHg 82%
    11:00 +7°C° 0.2 mm 6 m/S 741 mmHg 80%
    12:00 +8°C° 0.1 mm 7 m/S 741 mmHg 77%
    13:00 +8°C° 0.1 mm 7 m/S 741 mmHg 75%
    14:00 +9°C° 0.1 mm 7 m/S 742 mmHg 72%
    15:00 +9°C° 0.1 mm 7 m/S 742 mmHg 72%
    16:00 +10°C° 0.1 mm 6 m/S 743 mmHg 71%
    17:00 +10°C° 0.1 mm 6 m/S 744 mmHg 70%
    18:00 +10°C° 0.1 mm 5 m/S 744 mmHg 74%
    19:00 +9°C° 0.1 mm 5 m/S 745 mmHg 78%
    20:00 +8°C° 0.1 mm 5 m/S 746 mmHg 82%
    21:00 +8°C° 0 mm 5 m/S 746 mmHg 84%
    22:00 +7°C° 0 mm 5 m/S 747 mmHg 86%
    23:00 +7°C° 0 mm 5 m/S 747 mmHg 88%

    übermorgen, 19 September, Donnerstag

    Zeit Temperatur Niederschläge Wind Luftdruck Luftfeuchtigkeit
    00:00 +6°C° 0 mm 5 m/S 747 mmHg 90%
    01:00 +6°C° 0 mm 5 m/S 748 mmHg 91%
    02:00 +6°C° 0 mm 5 m/S 748 mmHg 93%
    03:00 +6°C° 0 mm 5 m/S 748 mmHg 92%
    04:00 +6°C° 0 mm 5 m/S 749 mmHg 91%
    05:00 +6°C° 0 mm 5 m/S 749 mmHg 90%
    06:00 +6°C° 0 mm 5 m/S 749 mmHg 88%
    07:00 +6°C° 0 mm 5 m/S 749 mmHg 87%
    08:00 +6°C° 0 mm 5 m/S 749 mmHg 85%
    09:00 +7°C° 0.1 mm 5 m/S 750 mmHg 81%
    10:00 +9°C° 0.1 mm 5 m/S 750 mmHg 76%
    11:00 +10°C° 0.1 mm 5 m/S 750 mmHg 72%
    12:00 +10°C° 0.3 mm 5 m/S 750 mmHg 71%
    13:00 +10°C° 0.3 mm 5 m/S 750 mmHg 71%
    14:00 +10°C° 0.3 mm 5 m/S 750 mmHg 71%
    15:00 +11°C° 0.2 mm 4 m/S 750 mmHg 71%
    16:00 +11°C° 0.2 mm 4 m/S 750 mmHg 72%
    17:00 +11°C° 0.2 mm 3 m/S 750 mmHg 73%
    18:00 +10°C° 0.2 mm 3 m/S 750 mmHg 78%
    19:00 +9°C° 0.2 mm 3 m/S 750 mmHg 84%
    20:00 +8°C° 0.2 mm 3 m/S 750 mmHg 89%
    21:00 +7°C° 0.1 mm 3 m/S 750 mmHg 90%
    22:00 +7°C° 0.1 mm 3 m/S 750 mmHg 90%
    23:00 +7°C° 0.1 mm 3 m/S 750 mmHg 91%

    20 September, Freitag

    Zeit Temperatur Niederschläge Wind Luftdruck Luftfeuchtigkeit
    00:00 +7°C° 0 mm 3 m/S 750 mmHg 91%
    01:00 +7°C° 0 mm 3 m/S 750 mmHg 91%
    02:00 +6°C° 0 mm 4 m/S 750 mmHg 91%
    03:00 +5°C° 0 mm 4 m/S 751 mmHg 93%
    04:00 +4°C° 0 mm 4 m/S 751 mmHg 94%
    05:00 +3°C° 0 mm 4 m/S 751 mmHg 96%
    06:00 +4°C° 0 mm 4 m/S 751 mmHg 92%
    07:00 +3°C° 0 mm 5 m/S 751 mmHg 88%
    08:00 +5°C° 0 mm 5 m/S 751 mmHg 84%
    09:00 +5°C° 0 mm 6 m/S 751 mmHg 75%
    10:00 +7°C° 0 mm 6 m/S 752 mmHg 66%
    11:00 +9°C° 0 mm 6 m/S 752 mmHg 58%
    12:00 +9°C° 0.2 mm 7 m/S 752 mmHg 57%
    13:00 +9°C° 0.2 mm 7 m/S 752 mmHg 55%
    14:00 +10°C° 0.2 mm 7 m/S 752 mmHg 54%
    15:00 +9°C° 0.2 mm 6 m/S 752 mmHg 58%
    16:00 +9°C° 0.2 mm 5 m/S 752 mmHg 62%
    17:00 +8°C° 0.2 mm 4 m/S 752 mmHg 66%
    18:00 +7°C° 0 mm 4 m/S 753 mmHg 72%
    19:00 +7°C° 0 mm 3 m/S 753 mmHg 78%
    20:00 +4°C° 0 mm 3 m/S 754 mmHg 83%
    21:00 +4°C° 0 mm 3 m/S 754 mmHg 86%
    22:00 +3°C° 0 mm 3 m/S 754 mmHg 89%
    23:00 +3°C° 0 mm 3 m/S 754 mmHg 92%

    21 September, Samstag

    Zeit Temperatur Niederschläge Wind Luftdruck Luftfeuchtigkeit
    00:00 +3°C° 0 mm 3 m/S 755 mmHg 93%
    01:00 +2°C° 0 mm 3 m/S 755 mmHg 93%
    02:00 +2°C° 0 mm 3 m/S 756 mmHg 94%
    03:00 +2°C° 0 mm 3 m/S 756 mmHg 95%
    04:00 +1°C° 0 mm 3 m/S 756 mmHg 95%
    05:00 +1°C° 0 mm 3 m/S 756 mmHg 96%
    06:00 +2°C° 0 mm 3 m/S 757 mmHg 92%
    07:00 +3°C° 0 mm 3 m/S 757 mmHg 87%
    08:00 +4°C° 0 mm 4 m/S 757 mmHg 83%
    09:00 +5°C° 0 mm 3 m/S 757 mmHg 72%
    10:00 +8°C° 0 mm 3 m/S 757 mmHg 61%
    11:00 +10°C° 0 mm 3 m/S 758 mmHg 50%
    12:00 +11°C° 0 mm 3 m/S 757 mmHg 48%
    13:00 +11°C° 0 mm 3 m/S 757 mmHg 46%
    14:00 +12°C° 0 mm 3 m/S 757 mmHg 43%
    15:00 +12°C° 0 mm 3 m/S 757 mmHg 48%
    16:00 +11°C° 0 mm 3 m/S 756 mmHg 52%
    17:00 +11°C° 0 mm 3 m/S 756 mmHg 57%
    18:00 +10°C° 0 mm 3 m/S 756 mmHg 58%
    19:00 +10°C° 0 mm 3 m/S 756 mmHg 59%
    20:00 +9°C° 0 mm 3 m/S 756 mmHg 61%
    21:00 +8°C° 0 mm 4 m/S 756 mmHg 63%
    22:00 +7°C° 0 mm 4 m/S 756 mmHg 65%
    23:00 +7°C° 0 mm 4 m/S 755 mmHg 67%

    22 September, Sonntag

    Zeit Temperatur Niederschläge Wind Luftdruck Luftfeuchtigkeit
    00:00 +7°C° 0 mm 4 m/S 755 mmHg 67%
    01:00 +6°C° 0 mm 4 m/S 755 mmHg 67%
    02:00 +6°C° 0 mm 5 m/S 755 mmHg 67%
    03:00 +6°C° 0 mm 4 m/S 755 mmHg 70%
    04:00 +6°C° 0 mm 4 m/S 755 mmHg 72%
    05:00 +6°C° 0 mm 4 m/S 755 mmHg 75%
    06:00 +7°C° 0 mm 4 m/S 755 mmHg 74%
    07:00 +8°C° 0 mm 5 m/S 754 mmHg 73%
    08:00 +8°C° 0 mm 5 m/S 754 mmHg 72%
    09:00 +10°C° 0 mm 5 m/S 754 mmHg 66%
    10:00 +13°C° 0 mm 5 m/S 754 mmHg 60%
    11:00 +16°C° 0 mm 5 m/S 754 mmHg 54%
    12:00 +16°C° 0 mm 5 m/S 754 mmHg 52%
    13:00 +17°C° 0 mm 5 m/S 753 mmHg 50%
    14:00 +19°C° 0 mm 5 m/S 753 mmHg 48%
    15:00 +18°C° 0 mm 4 m/S 753 mmHg 52%
    16:00 +18°C° 0 mm 4 m/S 752 mmHg 56%
    17:00 +17°C° 0 mm 3 m/S 752 mmHg 60%
    18:00 +14°C° 0 mm 3 m/S 752 mmHg 64%
    19:00 +14°C° 0 mm 2 m/S 751 mmHg 68%
    20:00 +12°C° 0 mm 2 m/S 751 mmHg 73%
    21:00 +10°C° 0 mm 2 m/S 751 mmHg 74%
    22:00 +10°C° 0 mm 2 m/S 751 mmHg 75%
    23:00 +10°C° 0 mm 1 m/S 751 mmHg 76%
    Mehr zeigen